Wetbulb
60.14 60.03 60.20 60.24 60.59 60.74 60.96 60.94 60.37 60.47 60.06 59.85 59.68 60.63 60.27 60.88 60.83 62.47 59.53 67.45 68.13 71.84 70.44 69.75 70.70 69.76 69.57 66.98 67.77 68.28 60.47 57.53 58.59 59.99 61.00 66.24 64.72 67.83 68.29 66.01 66.60 66.75 67.28 70.67 72.53
59.88 59.83 59.80 59.85 60.02 60.22 59.82 59.68 60.59 59.81 59.75 59.54 59.17 60.63 60.31 61.15 61.90 60.28 70.31 71.83 73.16 72.86 66.00 67.76 65.90 66.65 64.27 63.37 66.99 64.88 61.54 60.58 64.68 63.72 62.87 65.80 64.94 64.36 64.36 65.05 64.94 65.92 70.09 71.41 72.31
59.53 59.43 59.28 59.50 59.57 59.35 59.12 59.12 59.25 59.27 59.20 59.06 59.36 60.50 60.85 61.84 60.93 62.51 71.99 71.63 73.60 72.84 68.70 67.92 64.67 63.83 61.78 64.31 64.76 64.27 61.96 65.21 65.40 65.81 65.97 64.50 65.16 65.64 64.05 63.01 64.47 65.04 67.94 70.01 70.52
58.94 58.99 58.90 59.09 59.32 58.88 58.77 58.53 58.22 58.01 58.39 58.79 59.56 60.68 61.01 64.51 56.21 65.15 72.65 71.98 73.13 69.17 66.33 63.92 62.09 60.86 61.61 60.82 64.77 61.90 65.78 65.88 66.07 66.35 65.39 64.04 65.63 63.39 63.76 63.38 66.96 67.86 69.19 69.46 69.50
58.64 58.65 58.67 58.75 58.97 59.04 58.92 58.57 57.75 57.56 58.06 59.06 59.78 60.80 62.98 59.39 60.38 67.46 73.38 72.86 66.32 66.73 62.67 62.29 61.46 60.93 60.31 61.42 64.35 63.30 64.80 65.81 66.63 66.32 65.94 66.48 64.88 64.47 64.29 68.15 68.10 68.32 68.69 68.28 68.71
58.07 58.15 58.25 58.37 58.44 58.67 58.67 57.85 57.41 57.27 57.69 58.97 60.55 60.57 62.11 57.60 63.02 68.56 65.76 64.56 64.91 63.58 62.78 63.10 62.03 63.06 61.04 62.57 63.88 65.61 65.01 65.22 66.14 65.92 66.08 64.54 64.44 64.99 65.47 67.84 67.07 67.20 67.65 68.16 67.92
57.85 58.07 58.20 58.16 58.07 57.95 57.72 57.10 57.03 57.28 58.02 59.40 61.34 63.63 61.17 59.96 64.11 67.31 67.41 62.97 63.41 63.23 61.95 63.49 63.91 63.17 61.90 62.64 66.00 64.65 61.85 64.84 64.80 65.48 64.19 66.10 62.13 62.16 66.52 67.57 66.38 66.34 67.52 67.97 68.51
57.82 58.00 57.99 57.84 57.61 57.24 56.56 56.34 56.87 58.52 59.83 60.77 61.82 63.84 57.96 62.88 64.67 65.62 65.75 63.51 63.98 64.28 63.03 63.52 64.53 62.77 62.22 64.24 63.99 62.52 62.81 57.68 63.84 64.89 65.67 64.71 57.05 64.92 65.52 65.08 66.08 65.41 66.67 67.40 68.29
57.87 57.94 57.66 57.59 56.87 56.17 56.10 56.75 58.99 60.92 61.13 61.68 63.63 62.94 56.93 64.01 59.95 64.95 65.00 61.52 62.15 62.84 63.51 62.97 64.39 62.01 63.00 59.54 58.73 60.79 54.36 56.26 60.58 65.02 64.20 63.79 59.42 65.58 67.10 66.24 64.17 66.58 65.26 67.35 67.62
57.53 57.37 57.40 57.21 56.11 55.70 55.78 57.91 61.72 61.47 63.14 65.05 64.34 60.38 59.80 58.71 59.36 63.31 65.49 63.52 60.97 61.13 60.47 60.19 60.25 59.05 59.98 58.02 51.29 54.26 54.46 56.06 56.11 62.92 63.37 61.72 61.76 64.35 66.70 65.27 65.67 65.17 65.54 66.42 67.50
57.35 57.14 56.97 56.60 55.60 54.79 58.04 64.81 62.62 61.70 61.05 60.09 61.08 58.57 58.80 60.15 61.39 62.40 63.79 62.05 61.43 58.98 55.58 58.36 55.52 53.99 56.74 59.13 58.43 57.00 56.12 54.88 57.50 62.00 60.98 61.65 61.17 62.42 66.60 65.52 63.55 65.72 65.14 65.80 66.19
57.12 56.77 56.63 55.95 55.31 55.03 59.21 59.72 61.21 62.03 57.49 61.50 60.62 61.50 61.20 62.05 58.19 59.73 63.51 58.90 58.12 54.43 56.00 54.93 53.16 56.58 57.73 57.50 56.43 57.00 55.87 55.49 57.13 61.25 60.75 60.72 60.92 63.87 65.67 65.73 65.83 65.39 66.14 66.19 66.61
56.78 56.47 56.16 55.22 54.65 57.46 62.56 61.95 64.30 63.72 56.45 57.35 59.78 59.76 60.56 60.92 57.88 58.88 61.46 59.66 57.82 55.80 54.73 52.84 55.29 56.94 55.90 55.23 55.08 56.15 55.09 55.34 53.54 56.29 60.01 59.80 58.73 61.44 64.54 66.38 66.55 66.50 67.03 67.14 66.98
56.42 56.25 55.60 53.86 54.85 65.65 62.05 64.59 64.25 64.02 53.46 54.55 55.42 57.30 60.40 60.52 56.47 62.35 62.95 60.13 58.04 55.63 56.16 54.76 56.39 54.95 54.18 53.92 55.69 53.60 56.96 54.94 53.97 54.15 53.97 59.24 51.97 54.93 62.59 63.82 65.26 66.42 66.96 67.37 67.78
56.12 55.68 54.40 53.40 60.77 62.39 64.11 65.33 64.90 62.28 46.30 54.63 55.15 61.37 59.37 57.69 58.68 58.56 63.21 60.39 56.72 56.53 55.63 54.09 54.01 53.44 53.32 53.51 56.16 54.80 56.61 55.65 55.37 55.32 55.65 55.58 54.69 54.22 60.96 60.33 63.48 65.94 67.20 67.81 68.07
55.38 54.18 53.86 57.64 61.13 65.17 65.99 64.85 62.65 51.47 46.41 52.55 57.25 55.99 55.41 56.63 57.06 59.59 59.12 61.41 60.86 56.50 56.86 54.30 57.30 55.41 54.46 55.61 56.70 57.24 54.96 56.71 56.89 55.70 49.71 54.27 54.47 52.92 57.55 59.20 62.51 65.03 66.86 68.12 68.32
53.75 52.64 54.58 62.81 63.44 66.29 66.22 62.12 51.87 48.19 54.58 52.36 53.98 56.45 55.93 54.35 54.46 56.33 55.96 55.82 53.93 50.74 50.95 53.12 52.46 55.20 54.46 52.68 56.17 56.55 52.92 49.35 48.92 49.34 47.71 55.87 53.78 54.53 58.20 60.37 61.82 63.75 65.37 67.70 68.89
51.99 51.22 58.25 63.60 66.56 65.25 64.16 56.93 48.63 52.29 52.03 54.96 53.88 54.12 53.70 55.07 54.00 55.38 55.01 53.88 56.18 54.10 51.47 49.95 48.31 52.35 54.42 52.92 53.20 53.48 53.44 49.40 44.77 45.74 48.41 54.76 50.68 54.90 60.07 61.26 63.29 64.21 64.50 66.80 68.36
51.10 63.96 66.20 66.65 66.20 65.70 60.38 51.96 52.16 53.71 53.88 52.93 54.08 51.95 52.88 54.38 54.76 54.72 54.46 54.43 55.93 55.59 51.16 50.67 49.90 54.39 54.25 54.08 55.25 54.13 51.69 55.00 50.51 51.11 48.51 50.67 54.36 57.84 60.36 60.62 63.07 63.62 64.24 65.19 67.93
63.37 65.36 64.26 65.44 66.11 63.81 57.76 50.49 54.39 55.05 55.42 56.12 51.74 52.68 51.48 53.36 52.96 53.90 54.67 56.20 55.28 56.82 57.33 54.12 50.08 53.36 53.77 54.30 55.05 54.20 56.31 50.18 50.77 45.34 44.38 48.56 51.28 53.13 57.26 59.49 62.41 63.23 64.18 65.73 67.27
62.80 62.41 65.08 66.80 65.49 60.34 54.43 54.89 55.69 56.81 57.66 55.18 54.28 52.90 52.94 52.76 54.06 53.88 53.94 56.37 56.96 56.62 57.33 55.25 52.92 52.71 54.66 52.09 50.84 52.60 51.99 52.88 52.62 51.30 46.90 45.58 50.29 55.72 58.75 60.83 62.83 63.94 65.80 66.37 66.61
64.00 60.22 65.73 66.45 58.39 59.27 56.61 56.86 50.38 56.89 58.79 57.67 57.14 55.85 54.81 55.18 53.63 53.43 53.49 56.16 57.20 57.15 54.82 56.83 53.84 50.70 52.18 55.61 55.39 53.91 53.03 53.27 49.17 49.00 50.78 50.19 50.84 59.34 60.18 62.08 63.46 64.78 66.74 66.62 66.27
60.56 61.30 65.93 64.59 56.01 56.49 58.04 56.70 56.83 56.79 57.19 56.46 56.19 57.14 57.47 55.28 53.26 54.86 54.97 57.66 57.33 55.62 54.64 56.40 53.10 49.17 51.07 53.95 54.85 52.08 53.46 54.54 53.79 52.90 50.97 47.99 51.13 60.89 60.54 60.07 64.05 65.13 66.95 67.28 68.10
60.03 57.55 60.81 61.61 61.13 56.61 55.70 55.33 54.77 57.92 56.60 57.58 57.27 58.46 56.77 55.52 57.31 55.20 55.55 56.85 57.63 56.33 60.94 59.00 53.23 52.26 48.70 51.72 53.61 51.52 52.03 53.45 53.02 49.96 50.35 50.69 52.78 56.60 58.53 59.98 64.01 65.33 67.20 67.61 69.19
58.15 54.94 55.32 55.47 56.68 55.19 55.82 55.17 53.55 53.35 57.17 57.57 56.06 56.14 55.44 53.63 54.84 54.78 56.38 57.24 58.13 62.48 58.51 56.21 51.00 53.06 53.46 54.01 53.88 53.17 52.24 52.26 52.01 53.26 50.52 52.65 53.48 56.98 59.56 60.73 64.22 66.41 66.46 67.35 69.25
56.24 54.44 56.56 54.80 53.59 52.90 49.64 52.25 52.33 53.14 54.87 53.94 53.70 55.17 54.81 54.23 54.60 53.19 55.24 55.42 54.69 58.71 57.24 57.90 53.02 53.73 52.17 53.75 53.75 52.05 53.88 53.14 52.93 53.66 53.47 53.74 53.31 58.90 61.04 63.35 65.23 66.73 65.95 67.09 68.55
58.21 59.80 56.71 50.77 52.59 51.70 53.01 52.36 51.06 52.70 53.34 53.67 53.58 53.41 53.19 53.86 57.37 58.65 59.25 58.59 58.20 56.41 54.46 56.06 54.70 52.66 49.21 53.12 52.98 50.11 53.14 53.40 53.78 54.87 54.27 52.38 56.37 60.17 60.98 61.99 65.22 66.91 66.23 67.22 68.25
MSLP
1016.91 1016.61 1016.32 1016.04 1015.72 1015.39 1015.12 1014.93 1014.73 1014.49 1014.27 1014.11 1013.87 1013.55 1013.31 1012.97 1012.43 1011.66 1009.24 1008.06 1007.83 1008.33 1008.71 1007.44 1007.07 1006.49 1005.87 1005.01 1005.14 1005.53 1005.51 1005.28 1005.52 1005.78 1006.88 1007.32 1007.42 1007.96 1007.76 1006.69 1006.69 1006.76 1006.42 1007.57 1009.41
1016.87 1016.56 1016.29 1015.98 1015.62 1015.33 1015.10 1014.87 1014.60 1014.40 1014.16 1013.95 1013.78 1013.46 1013.19 1012.92 1011.35 1009.01 1007.61 1007.92 1008.20 1008.34 1007.96 1006.72 1005.94 1005.68 1004.86 1004.37 1004.38 1004.44 1005.06 1005.01 1005.32 1006.04 1005.95 1006.83 1007.62 1008.11 1007.88 1006.82 1006.86 1007.04 1007.57 1008.43 1009.04
1016.93 1016.57 1016.26 1015.97 1015.60 1015.29 1015.05 1014.77 1014.50 1014.27 1014.07 1013.83 1013.61 1013.35 1013.14 1012.77 1010.04 1006.67 1007.28 1007.65 1008.21 1008.21 1006.75 1006.14 1005.53 1005.11 1004.05 1003.71 1003.84 1004.33 1004.77 1005.30 1005.52 1006.41 1006.31 1006.64 1006.98 1007.98 1007.65 1006.83 1006.20 1006.92 1007.76 1008.42 1008.82
1016.99 1016.62 1016.26 1015.94 1015.58 1015.23 1014.91 1014.64 1014.37 1014.13 1013.93 1013.72 1013.53 1013.27 1013.13 1011.93 1007.81 1006.81 1007.69 1007.78 1008.17 1007.78 1006.77 1005.86 1005.28 1004.45 1003.19 1002.98 1003.59 1004.40 1005.07 1005.68 1006.14 1006.47 1006.51 1006.91 1007.10 1007.77 1008.78 1008.39 1006.15 1006.91 1007.65 1008.08 1008.37
1017.00 1016.61 1016.24 1015.84 1015.44 1015.09 1014.73 1014.46 1014.24 1014.00 1013.72 1013.50 1013.39 1013.19 1012.89 1009.70 1006.56 1007.10 1007.84 1008.07 1008.00 1007.68 1006.46 1005.45 1004.65 1003.80 1003.01 1003.27 1003.42 1003.97 1004.90 1005.48 1006.31 1006.54 1006.55 1007.01 1006.98 1007.50 1008.46 1007.03 1006.89 1007.24 1007.74 1007.87 1007.88
1017.00 1016.58 1016.16 1015.79 1015.33 1014.86 1014.51 1014.21 1013.99 1013.78 1013.54 1013.26 1013.16 1013.17 1011.49 1007.58 1005.71 1006.06 1006.83 1007.38 1006.85 1006.75 1005.91 1005.23 1004.42 1004.25 1003.72 1003.63 1004.15 1003.98 1005.08 1005.19 1005.61 1006.35 1006.53 1007.09 1007.65 1007.61 1007.68 1007.10 1007.15 1007.55 1007.46 1007.61 1008.05
1016.92 1016.49 1016.05 1015.62 1015.19 1014.74 1014.31 1013.95 1013.65 1013.40 1013.18 1012.99 1012.86 1012.29 1009.38 1006.13 1005.73 1005.79 1006.17 1006.46 1006.48 1005.89 1005.13 1004.85 1004.71 1004.44 1003.71 1003.47 1004.44 1004.42 1004.45 1004.36 1005.07 1005.91 1006.33 1006.68 1007.67 1007.93 1008.13 1007.66 1007.41 1007.39 1007.20 1007.47 1008.02
1016.84 1016.39 1015.90 1015.41 1014.94 1014.49 1014.04 1013.61 1013.25 1012.98 1012.80 1012.71 1012.72 1011.36 1007.31 1005.28 1005.66 1005.88 1005.70 1005.74 1005.74 1005.56 1005.31 1004.95 1005.09 1004.66 1004.08 1004.05 1004.04 1003.80 1004.17 1003.97 1004.68 1005.64 1006.11 1006.58 1006.56 1007.06 1008.28 1008.20 1007.53 1007.58 1007.01 1007.58 1008.03
1016.76 1016.21 1015.72 1015.21 1014.73 1014.23 1013.67 1013.15 1012.79 1012.56 1012.51 1012.52 1011.96 1009.73 1006.02 1006.33 1005.73 1005.30 1005.30 1005.17 1005.47 1005.46 1005.41 1005.66 1005.19 1004.20 1003.44 1003.38 1002.20 1002.82 1002.83 1002.99 1004.10 1004.88 1005.28 1005.89 1005.33 1006.25 1007.41 1007.63 1007.72 1007.19 1007.46 1007.15 1008.06
1016.57 1016.06 1015.59 1015.06 1014.56 1014.06 1013.48 1013.05 1012.53 1012.48 1012.21 1011.23 1009.70 1008.14 1005.26 1004.24 1004.24 1004.62 1004.96 1004.77 1005.01 1005.03 1005.12 1005.25 1004.57 1003.64 1002.95 1002.19 1001.77 1002.23 1001.46 1002.37 1003.27 1004.07 1004.78 1004.63 1004.82 1005.32 1006.76 1007.37 1007.07 1007.54 1007.56 1006.85 1007.49
1016.37 1015.88 1015.41 1014.91 1014.48 1013.98 1013.05 1012.09 1011.65 1010.25 1009.11 1006.37 1005.04 1004.26 1003.46 1002.83 1003.50 1004.15 1004.59 1004.78 1004.46 1004.51 1004.24 1003.99 1003.51 1002.45 1001.76 1001.11 1001.30 1001.81 1001.94 1001.90 1002.47 1003.27 1003.84 1003.53 1003.64 1003.97 1004.99 1006.20 1006.93 1006.82 1007.00 1006.19 1006.39
1016.15 1015.70 1015.14 1014.66 1014.22 1013.77 1013.24 1009.41 1007.59 1007.51 1006.00 1005.00 1004.42 1003.75 1003.38 1003.29 1003.45 1003.66 1004.27 1004.31 1004.00 1003.59 1003.62 1003.25 1002.39 1002.08 1001.59 1001.33 1001.90 1001.85 1001.43 1001.27 1001.92 1002.82 1003.05 1002.56 1002.09 1002.38 1002.98 1004.33 1004.92 1005.78 1005.47 1005.54 1005.60
1015.87 1015.38 1014.88 1014.40 1013.89 1013.09 1010.40 1008.16 1007.70 1007.28 1005.36 1002.61 1002.66 1002.81 1002.99 1003.49 1002.43 1002.50 1003.62 1003.57 1003.11 1003.09 1002.60 1002.08 1001.26 1001.23 1001.63 1001.36 1001.80 1001.49 1001.04 1000.70 1001.54 1001.63 1001.71 1002.05 1001.09 1001.02 1001.58 1002.55 1003.52 1004.49 1004.72 1004.90 1004.90
1015.53 1015.03 1014.61 1014.20 1013.76 1009.63 1008.42 1007.57 1007.66 1007.35 1004.59 1001.64 1002.03 1001.95 1002.12 1002.61 1002.18 1001.61 1002.66 1002.99 1002.79 1002.39 1002.08 1001.54 1001.65 1001.34 1001.51 1001.12 1001.38 1000.42 1000.76 1001.26 1001.46 1000.90 1001.22 1003.44 1000.82 1000.81 999.91 1000.88 1001.90 1002.85 1003.69 1003.86 1004.19
1015.07 1014.65 1014.34 1014.35 1012.03 1008.85 1007.80 1007.69 1007.55 1007.01 1003.01 1001.41 1001.33 1001.87 1001.62 1001.82 1000.53 1001.33 1001.96 1002.49 1001.96 1001.72 1002.30 1001.02 1001.14 1001.13 1000.95 1000.94 1001.00 1000.69 1001.20 1001.58 1001.33 1000.59 999.69 999.49 999.60 1000.35 999.76 999.68 1000.09 1000.92 1001.69 1002.75 1003.47
1014.52 1014.14 1013.90 1012.79 1011.53 1008.43 1008.15 1007.79 1007.47 1005.43 1001.17 1000.43 1000.86 1001.26 1001.12 1001.28 1000.79 1000.70 1001.74 1002.30 1001.91 1001.78 1001.35 1001.10 1000.61 1000.92 1000.77 1000.87 1000.76 1001.06 1001.45 1001.16 1000.63 999.97 998.99 998.43 998.93 999.28 999.27 998.81 998.60 999.11 1000.11 1001.16 1002.40
1013.92 1013.53 1013.29 1010.61 1008.20 1008.29 1008.12 1007.42 1005.46 1002.54 1000.41 999.84 999.86 1000.18 1000.46 1000.28 1000.51 1001.01 1001.42 1001.44 1001.27 1001.34 1000.56 1000.64 1000.71 1000.57 1001.12 1000.54 1000.28 1000.54 1000.70 999.55 999.01 998.48 998.60 997.76 998.01 997.05 998.27 998.09 998.22 998.49 998.95 999.96 1001.01
1013.29 1012.99 1011.58 1009.78 1008.96 1008.79 1008.00 1006.52 1003.65 1000.92 999.99 1000.54 1000.37 999.94 999.47 999.35 999.98 999.97 1000.41 1000.42 1000.75 1000.13 999.30 998.78 998.78 999.43 999.98 1000.12 999.47 1000.08 999.71 998.24 997.53 996.97 996.87 997.28 996.80 996.70 996.98 997.19 997.84 998.37 998.60 999.11 1000.19
1012.73 1010.79 1008.71 1008.66 1008.80 1008.68 1007.07 1004.64 1001.94 1001.01 1001.13 1000.95 1000.16 999.75 998.86 999.02 999.06 999.34 999.60 999.28 999.35 999.79 999.35 998.13 997.95 998.06 998.81 999.49 999.55 998.82 999.05 998.62 997.66 997.05 996.73 996.55 996.35 996.24 996.82 997.05 997.43 998.04 998.64 999.16 999.86
1011.27 1008.17 1007.97 1008.27 1008.48 1007.95 1006.24 1003.56 1002.20 1002.73 1002.70 1001.72 1000.57 999.83 998.81 998.35 998.89 998.98 998.50 998.63 998.55 998.65 999.17 998.61 998.13 997.98 998.15 998.96 999.09 998.89 998.16 998.31 997.88 997.44 996.80 996.12 996.26 996.82 997.03 996.94 997.29 997.88 998.56 999.40 999.91
1010.81 1006.91 1007.47 1007.48 1007.85 1006.68 1004.60 1002.97 1002.52 1003.21 1003.48 1002.35 1001.34 1000.74 1000.16 999.37 998.72 998.47 998.14 998.18 998.05 998.08 998.52 998.80 998.61 997.82 997.76 997.71 997.74 998.22 998.09 997.90 997.24 996.58 996.16 996.02 997.23 998.37 996.96 997.02 997.08 997.43 998.51 999.44 999.93
1009.02 1005.87 1007.06 1007.14 1006.27 1004.59 1003.59 1003.28 1004.50 1003.78 1003.44 1003.19 1002.65 1002.31 1001.57 1000.82 1000.00 999.62 998.69 997.78 998.36 998.16 997.97 998.25 998.25 997.57 997.19 997.20 997.45 997.32 997.24 997.60 997.05 997.04 996.81 996.17 996.10 996.96 997.24 996.95 997.17 997.48 998.60 999.25 999.87
1008.72 1006.81 1006.70 1006.38 1004.60 1003.77 1004.10 1004.50 1004.67 1004.04 1003.64 1003.47 1003.03 1002.68 1002.49 1002.02 1001.62 1000.83 1000.00 999.07 999.19 999.53 999.60 999.26 998.27 997.67 996.79 996.28 996.36 996.52 996.52 996.28 996.32 996.11 995.76 995.75 995.76 996.49 996.62 996.78 997.24 997.44 998.77 999.93 1000.37
1009.43 1006.50 1005.96 1006.03 1005.91 1005.43 1004.73 1004.75 1004.37 1004.78 1005.00 1004.47 1004.32 1003.81 1003.51 1002.78 1002.40 1001.79 1001.05 1000.09 1000.06 1000.76 1001.21 1000.90 999.11 997.50 996.41 995.44 995.11 995.79 996.36 996.23 995.82 995.12 995.04 994.87 995.33 995.92 996.22 996.38 997.08 997.74 999.04 1000.01 1000.67
1010.05 1008.45 1008.70 1006.10 1006.01 1006.70 1006.27 1005.96 1005.52 1005.04 1005.12 1005.41 1005.09 1004.45 1004.07 1003.56 1002.98 1002.10 1001.81 1001.45 1000.93 1001.02 1001.49 1001.02 999.55 998.64 997.35 996.13 995.62 994.89 995.01 995.68 995.29 994.93 994.58 994.33 994.34 994.42 994.92 995.53 996.55 997.73 999.09 1000.02 1000.73
1011.34 1010.76 1009.61 1008.29 1007.94 1007.48 1006.80 1006.44 1006.46 1006.26 1006.46 1006.19 1005.46 1005.12 1005.44 1005.14 1004.59 1003.78 1003.59 1003.53 1002.62 1001.70 1000.83 1000.80 999.75 999.36 997.89 996.83 995.71 995.07 994.42 994.29 994.59 994.41 994.47 994.32 994.85 995.59 995.08 995.38 996.39 997.65 998.85 999.84 1000.68
1013.60 1012.30 1011.38 1009.28 1008.15 1007.66 1007.37 1007.76 1008.00 1008.06 1007.86 1007.29 1007.07 1006.69 1006.14 1006.06 1005.93 1005.68 1004.79 1004.40 1004.05 1003.22 1002.78 1002.21 1001.13 999.93 998.31 997.65 996.36 995.07 994.20 994.07 994.08 994.00 994.19 993.97 993.97 994.31 995.70 995.64 996.37 997.61 998.63 999.51 1000.41
Wind_Speed
12 12 12 12 12 12 12 11 11 11 11 10 10 9 9 11 14 9 11 3 5 14 6 11 10 11 9 11 2 7 2 4 5 6 2 7 7 4 6 4 8 3 5 17 19
13 13 13 13 13 13 13 13 12 11 11 10 9 9 9 10 13 16 7 9 12 12 13 11 11 7 12 5 4 8 3 9 8 8 2 11 9 6 7 9 10 9 15 13 15
14 14 14 14 13 13 12 13 13 12 11 10 9 9 9 11 12 16 9 14 12 13 16 11 8 7 14 6 2 0 5 9 10 8 2 5 11 9 6 11 11 13 13 13 12
15 15 15 15 14 14 13 13 13 12 11 9 9 8 8 12 6 10 6 11 11 14 14 11 10 12 11 1 6 2 4 7 6 2 3 5 8 7 7 10 12 13 13 11 12
15 15 15 15 15 14 14 13 13 12 11 9 8 7 8 10 13 13 10 9 14 14 14 12 11 11 11 7 4 1 7 4 5 3 5 2 5 2 19 11 13 14 12 11 9
15 15 15 15 16 16 15 15 14 12 10 9 7 5 9 16 6 11 12 14 15 15 13 12 9 10 10 4 7 3 3 5 4 4 5 4 2 4 5 2 12 12 12 11 10
15 16 15 16 16 16 17 16 14 11 9 8 8 7 12 13 2 6 11 16 15 14 15 9 8 11 7 2 3 4 10 9 5 4 4 7 8 8 4 6 8 11 11 12 10
17 17 17 18 18 18 18 16 12 9 8 7 7 11 12 7 3 6 12 14 13 11 10 7 7 13 9 1 10 10 6 6 8 6 5 11 6 14 11 13 11 14 12 11 11
16 16 17 17 18 18 16 13 9 6 5 8 9 10 13 6 14 14 12 13 12 10 8 5 12 15 8 14 17 8 8 5 8 7 3 9 2 19 17 13 10 10 8 14 9
16 16 16 16 18 17 17 8 3 8 8 9 10 10 12 14 16 17 14 9 12 11 11 12 12 15 13 14 4 9 9 6 4 9 6 7 8 10 14 14 14 12 15 14 16
17 17 16 16 16 17 13 7 8 9 12 15 6 13 5 2 16 13 16 14 15 11 16 17 15 15 16 14 9 8 11 3 5 5 6 9 9 11 16 17 13 16 17 17 16
17 16 16 17 15 15 9 9 8 8 10 23 18 12 3 9 12 17 17 17 17 15 17 16 16 17 16 9 8 12 13 8 4 5 8 12 11 11 16 17 19 21 19 17 17
18 16 15 17 16 6 12 11 5 9 9 13 17 18 14 12 16 18 19 19 15 15 16 18 14 13 18 8 14 14 14 7 6 9 12 12 17 15 15 17 18 18 17 17 17
18 16 14 16 5 2 10 6 6 6 8 14 12 10 19 12 17 14 21 18 15 17 15 16 15 15 11 12 16 17 6 5 11 13 2 21 8 14 15 17 19 21 19 19 18
18 16 12 6 12 10 8 3 7 7 9 10 11 7 11 17 1 22 12 19 19 16 11 14 14 18 15 15 17 15 5 8 11 14 17 13 9 5 9 12 14 20 23 22 19
19 17 9 7 7 10 4 4 7 9 6 9 9 11 14 22 15 10 17 18 12 16 14 18 10 10 15 16 16 7 8 12 14 13 12 10 10 13 11 3 9 15 18 22 23
19 13 7 9 1 1 6 8 9 12 6 7 7 11 15 17 23 14 15 19 16 13 15 16 19 16 11 16 18 16 15 14 12 11 9 9 4 3 7 10 5 9 13 18 22
19 8 10 8 3 6 7 10 10 3 3 4 4 5 12 15 19 17 15 18 20 18 15 13 17 22 16 20 16 13 19 15 8 9 4 11 6 4 6 5 5 5 5 11 19
18 8 6 3 5 5 9 11 7 6 7 7 8 11 14 13 15 18 18 18 19 19 19 13 11 6 16 18 20 18 17 19 19 15 12 9 7 7 9 3 11 7 5 7 16
7 5 6 5 8 8 9 15 4 6 7 11 14 1 14 13 16 16 18 14 18 19 16 18 12 5 11 16 20 22 13 12 12 12 12 9 10 10 7 2 10 10 9 7 13
8 6 6 7 7 8 9 9 2 2 9 9 12 9 11 15 9 15 17 15 12 14 18 17 17 15 10 15 18 17 19 15 19 13 9 11 8 4 8 2 10 11 9 9 10
7 3 5 6 9 6 9 4 4 11 5 10 8 14 14 15 12 14 20 12 10 5 13 14 16 16 21 14 18 22 22 21 13 15 11 14 6 14 10 4 5 9 8 5 5
7 3 5 8 8 6 3 10 5 9 9 5 8 7 12 9 15 15 19 14 2 6 5 13 14 16 20 16 14 20 24 22 21 20 17 12 2 10 7 4 6 8 9 7 7
6 4 6 5 4 9 6 10 6 7 10 9 11 13 12 15 14 13 17 10 8 7 9 11 18 14 16 17 14 22 19 19 21 15 15 14 8 4 5 10 11 7 11 11 10
3 6 6 3 5 9 8 12 10 10 7 5 10 13 13 13 16 16 11 18 20 6 12 17 20 21 23 24 21 18 20 23 23 20 18 14 13 11 20 13 14 11 12 12 13
7 6 6 6 5 7 5 8 6 12 9 12 16 10 3 14 16 20 11 12 13 16 11 12 17 19 23 26 20 20 21 26 25 22 17 18 11 3 7 11 14 14 14 14 14
7 4 6 3 6 7 6 8 9 9 10 9 11 14 13 14 12 17 20 14 17 18 16 16 16 18 21 22 22 22 22 17 18 16 15 17 14 18 16 11 15 16 16 15 15
Wind_Direction
346 347 345 343 338 336 335 334 333 331 328 323 314 309 304 303 293 230 241 57 145 162 209 217 221 245 249 259 212 275 178 294 15 13 210 149 184 145 327 188 39 76 52 111 137
344 343 343 342 339 338 340 334 332 330 326 321 310 305 299 311 268 253 171 116 144 162 209 205 215 225 256 231 207 264 356 15 356 354 297 153 175 189 192 181 124 109 95 123 141
345 342 342 340 339 339 337 334 332 329 325 318 308 302 296 296 267 239 127 137 173 197 239 235 291 267 270 242 125 14 12 355 33 359 13 153 175 176 239 219 165 133 135 145 151
345 341 340 338 336 336 334 333 328 326 320 311 300 295 297 253 244 72 123 140 176 218 249 246 251 252 265 329 33 139 59 354 19 65 100 149 141 207 63 298 98 130 142 150 165
344 340 338 336 334 331 328 327 323 318 312 302 290 287 264 222 254 122 138 149 183 213 240 239 256 274 286 358 312 83 27 20 55 164 153 164 175 245 173 204 114 128 147 159 169
342 338 335 333 331 328 326 322 316 309 298 285 271 267 242 248 76 135 175 170 194 215 232 248 272 355 294 349 87 276 18 17 117 135 154 154 128 251 121 79 129 154 159 151 138
339 335 333 332 331 328 323 316 308 296 280 256 241 246 261 248 14 155 183 192 211 219 239 233 287 269 340 72 37 292 262 177 118 135 185 194 177 209 111 325 165 184 180 133 144
335 334 334 334 332 327 320 308 295 280 256 231 224 244 261 196 236 206 183 190 208 219 270 329 256 269 268 217 222 234 265 121 118 151 148 234 255 173 175 205 194 210 172 153 152
331 330 333 330 331 328 321 309 284 230 207 194 218 234 245 114 209 209 195 192 193 213 224 268 255 254 228 249 235 254 186 58 140 162 148 226 273 157 183 188 211 195 246 169 193
329 329 329 327 332 327 324 291 196 179 209 210 269 240 232 220 192 195 199 221 194 209 212 221 231 242 232 252 193 234 325 47 70 146 211 219 247 150 178 194 202 184 224 210 169
325 326 325 327 329 321 307 200 204 193 202 232 208 237 141 187 160 194 187 208 217 215 225 210 238 238 244 236 284 331 281 298 75 92 254 239 248 198 170 191 203 204 217 217 193
322 322 320 325 319 309 273 254 32 349 282 214 248 233 271 167 187 197 188 210 218 228 219 242 224 251 255 272 293 268 272 261 157 193 244 256 248 217 177 202 195 204 212 216 186
319 319 318 322 321 252 243 284 349 330 259 245 208 219 206 220 222 188 193 209 224 229 239 236 233 212 247 241 236 243 263 280 317 284 238 263 250 223 200 190 196 201 210 208 213
318 317 316 320 287 187 235 201 252 306 269 164 194 221 205 200 233 209 184 223 224 245 238 244 244 246 250 248 244 252 16 356 287 270 229 240 275 246 164 192 197 192 203 216 202
317 315 312 289 323 242 47 227 298 238 267 138 127 83 186 202 280 196 194 213 240 225 247 241 234 241 234 247 223 257 67 274 280 276 276 259 277 152 243 185 196 203 196 206 207
318 319 302 204 222 272 273 248 240 232 249 144 139 192 205 203 226 148 196 226 233 254 242 256 255 243 253 226 252 230 268 245 246 254 265 200 239 109 239 203 179 185 199 198 188
321 315 242 315 17 165 237 229 227 248 97 154 202 179 206 200 220 168 206 204 221 220 233 220 241 237 219 250 224 223 236 238 225 231 320 167 246 173 186 202 180 190 187 196 187
322 310 192 282 304 258 229 222 256 355 327 75 277 229 238 217 208 194 214 219 215 236 273 224 213 212 219 234 217 219 237 255 274 270 347 353 268 125 320 59 158 187 200 185 188
316 204 210 115 208 228 230 225 252 342 27 315 283 245 223 231 219 207 217 221 222 216 253 278 238 231 208 212 246 209 215 260 288 284 263 275 202 91 44 321 161 169 143 197 180
274 234 74 133 171 218 241 254 322 334 321 286 278 278 282 192 213 242 217 226 239 225 224 259 264 192 196 213 219 245 252 225 232 264 278 256 224 97 161 210 160 166 168 169 184
250 229 90 160 206 224 241 243 309 200 315 293 289 284 273 291 284 225 244 239 225 249 213 237 258 269 191 207 227 207 240 254 276 267 303 242 97 102 310 57 164 175 130 169 187
282 259 110 207 231 227 264 346 23 278 248 269 276 282 290 300 291 272 268 264 20 261 271 231 241 245 255 216 219 244 217 232 241 235 265 302 308 157 244 155 180 129 122 156 180
305 10 164 244 273 204 116 264 274 282 264 286 275 285 290 287 281 270 276 282 342 264 277 279 240 252 255 237 210 217 238 230 229 246 262 257 119 162 158 191 173 146 137 135 167
286 248 149 230 315 299 324 276 268 160 294 286 294 302 275 267 257 256 276 273 268 260 17 301 272 242 253 252 222 202 226 247 257 254 252 236 170 146 249 192 157 167 144 155 168
342 51 4 336 72 333 311 305 291 281 205 294 281 266 282 308 298 272 272 263 262 235 260 253 257 266 264 266 264 260 201 224 237 246 265 260 240 190 189 183 160 160 160 159 158
346 334 344 288 292 275 216 277 326 309 337 289 291 268 255 286 287 289 295 299 317 307 245 276 276 263 258 265 263 256 259 209 221 232 245 259 228 198 352 129 151 162 165 165 165
3 335 275 195 308 278 27 348 317 321 288 267 306 300 282 284 334 313 309 288 271 280 285 290 283 267 247 252 256 255 244 241 254 246 233 252 260 155 172 175 164 167 172 166 166